W8DRH-13 Weather Reports


Display with metric or nautical units.
time (UTC)temp
F
wind
direction
speed
MPH
gust
MPH
rain 1hr
in
rain 24hr
in
rain mn
in
humidity
%
barometer
mb
20260504011148 50 139 0.0 0.0 0.00 0.00 0.00 75 1010.4
20260504010644 50 169 2.0 2.0 0.00 0.00 0.00 75 1010.3
20260504010140 50 150 0.0 0.0 0.00 0.00 0.00 75 1010.3
20260504005637 50 168 2.0 2.0 0.00 0.00 0.00 75 1010.4
20260504005134 50 152 1.0 1.0 0.00 0.00 0.00 75 1010.5
20260504004632 50 164 1.0 2.0 0.00 0.00 0.00 75 1010.5
20260504004129 50 162 2.0 2.0 0.00 0.00 0.00 74 1010.3
20260504003625 50 154 0.0 0.0 0.00 0.00 0.00 73 1010.5
20260504003122 50 162 1.0 1.0 0.00 0.00 0.00 73 1010.4
20260504002619 50 216 2.0 2.0 0.00 0.00 0.00 73 1010.5
20260504002116 50 200 0.0 0.0 0.00 0.00 0.00 72 1010.6
20260504001614 50 203 2.0 3.0 0.00 0.00 0.00 72 1010.7
20260504001109 50 220 9.0 10.0 0.00 0.00 0.00 71 1010.7
20260504000607 51 218 7.0 8.0 0.00 0.00 0.00 70 1010.6
20260504000105 51 228 8.0 9.0 0.00 0.00 0.00 70 1010.7
20260503235603 51 230 6.0 8.0 0.00 0.00 0.00 69 1010.9
20260503235059 51 229 8.0 9.0 0.00 0.00 0.00 68 1011.1
20260503234557 51 241 13.0 17.0 0.00 0.00 0.00 68 1011.0
20260503234055 52 249 10.0 13.0 0.00 0.00 0.00 67 1010.9
20260503233551 52 270 11.0 15.0 0.00 0.00 0.00 66 1011.0
20260503233047 52 257 12.0 16.0 0.00 0.00 0.00 66 1011.0
20260503232544 53 259 17.0 21.0 0.00 0.00 0.00 64 1011.3
20260503232042 53 242 12.0 15.0 0.00 0.00 0.00 63 1011.0
20260503231539 54 238 13.0 16.0 0.00 0.00 0.00 61 1010.8
20260503231036 54 270 17.0 21.0 0.00 0.00 0.00 58 1010.9
20260503230532 55 253 12.0 15.0 0.00 0.00 0.00 56 1010.8
20260503230030 57 266 15.0 17.0 0.00 0.00 0.00 52 1010.6
20260503225527 58 234 10.0 11.0 0.00 0.00 0.00 45 1010.4
20260503225021 58 224 12.0 14.0 0.00 0.00 0.00 45 1010.3
20260503224520 58 222 10.0 14.0 0.00 0.00 0.00 45 1010.5
20260503224017 59 216 7.0 9.0 0.00 0.00 0.00 45 1010.6
20260503223515 59 263 7.0 8.0 0.00 0.00 0.00 44 1010.5
20260503223010 59 246 9.0 11.0 0.00 0.00 0.00 43 1010.4
20260503222509 59 247 5.0 6.0 0.00 0.00 0.00 43 1010.8
20260503222006 59 250 7.0 8.0 0.00 0.00 0.00 42 1010.6
20260503221504 59 211 6.0 8.0 0.00 0.00 0.00 43 1010.5
20260503221001 59 260 11.0 13.0 0.00 0.00 0.00 42 1010.7
20260503220457 59 199 6.0 8.0 0.00 0.00 0.00 43 1010.7
20260503215954 59 258 9.0 13.0 0.00 0.00 0.00 43 1010.8
20260503215451 59 234 8.0 10.0 0.00 0.00 0.00 43 1010.7
20260503214949 59 261 9.0 11.0 0.00 0.00 0.00 43 1010.7
20260503214447 59 214 14.0 17.0 0.00 0.00 0.00 42 1010.8
20260503213943 59 219 9.0 10.0 0.00 0.00 0.00 43 1010.8
20260503213437 60 286 8.0 10.0 0.00 0.00 0.00 42 1011.0
20260503212932 60 230 6.0 7.0 0.00 0.00 0.00 42 1010.8
20260503212430 60 276 9.0 10.0 0.00 0.00 0.00 42 1010.8
20260503211927 60 260 8.0 9.0 0.00 0.00 0.00 42 1010.8
20260503211424 60 249 8.0 9.0 0.00 0.00 0.00 42 1010.9
20260503210919 60 234 8.0 13.0 0.00 0.00 0.00 42 1010.9
20260503210416 60 211 15.0 19.0 0.00 0.00 0.00 41 1011.1
20260503205911 60 225 8.0 9.0 0.00 0.00 0.00 42 1011.1
20260503205409 60 230 6.0 9.0 0.00 0.00 0.00 43 1011.1
20260503204904 60 265 6.0 8.0 0.00 0.00 0.00 42 1011.1
20260503204402 60 242 7.0 8.0 0.00 0.00 0.00 42 1011.3
20260503203859 60 245 12.0 15.0 0.00 0.00 0.00 41 1011.5
20260503203356 60 257 11.0 14.0 0.00 0.00 0.00 41 1011.3
20260503202853 59 220 12.0 15.0 0.00 0.00 0.00 42 1011.3
20260503202351 59 227 9.0 11.0 0.00 0.00 0.00 42 1011.4
20260503201849 59 217 14.0 16.0 0.00 0.00 0.00 42 1011.4
20260503201346 59 234 7.0 8.0 0.00 0.00 0.00 41 1011.5
20260503200844 60 252 15.0 19.0 0.00 0.00 0.00 41 1011.5
20260503200339 60 245 9.0 10.0 0.00 0.00 0.00 43 1011.7
20260503195837 60 239 9.0 11.0 0.00 0.00 0.00 43 1011.8
20260503195333 60 241 9.0 10.0 0.00 0.00 0.00 41 1011.5
20260503194831 60 218 10.0 15.0 0.00 0.00 0.00 43 1011.7
20260503194326 60 293 6.0 8.0 0.00 0.00 0.00 44 1011.9
20260503193823 60 260 9.0 9.0 0.00 0.00 0.00 42 1012.0
20260503193319 61 229 7.0 8.0 0.00 0.00 0.00 41 1011.9
20260503192815 60 276 10.0 11.0 0.00 0.00 0.00 42 1012.0
20260503192310 60 225 7.0 8.0 0.00 0.00 0.00 43 1012.1
20260503191806 60 248 4.0 6.0 0.00 0.00 0.00 44 1012.0
20260503191304 60 239 13.0 15.0 0.00 0.00 0.00 42 1012.3
20260503190801 60 236 8.0 9.0 0.00 0.00 0.00 41 1012.3
20260503190258 59 243 11.0 14.0 0.00 0.00 0.00 43 1012.4
20260503185755 60 234 9.0 14.0 0.00 0.00 0.00 43 1012.6
20260503185250 59 274 7.0 9.0 0.00 0.00 0.00 44 1012.5
20260503184745 59 229 6.0 9.0 0.00 0.00 0.00 44 1012.5
20260503184241 59 227 9.0 11.0 0.00 0.00 0.00 43 1012.6
20260503183737 59 214 7.0 9.0 0.00 0.00 0.00 45 1012.9
20260503183235 59 232 13.0 16.0 0.00 0.00 0.00 43 1012.8
20260503182733 59 211 9.0 11.0 0.00 0.00 0.00 45 1012.7
20260503182232 59 247 7.0 9.0 0.00 0.00 0.00 42 1013.0
20260503181728 59 258 8.0 10.0 0.00 0.00 0.00 44 1013.1
20260503181225 59 269 9.0 10.0 0.00 0.00 0.00 42 1013.3
20260503180721 59 262 7.0 10.0 0.00 0.00 0.00 44 1013.1
20260503180220 59 231 9.0 15.0 0.00 0.00 0.00 43 1013.2
20260503175716 59 217 9.0 10.0 0.00 0.00 0.00 42 1013.3
20260503175214 59 273 8.0 10.0 0.00 0.00 0.00 44 1013.4
20260503174710 58 233 8.0 8.0 0.00 0.00 0.00 43 1013.3
20260503174207 58 222 8.0 9.0 0.00 0.00 0.00 46 1013.2
20260503173702 58 248 7.0 10.0 0.00 0.00 0.00 46 1013.4
20260503173159 59 288 9.0 11.0 0.00 0.00 0.00 44 1013.5
20260503172655 58 273 6.0 9.0 0.00 0.00 0.00 45 1013.5
20260503172153 58 267 11.0 15.0 0.00 0.00 0.00 41 1013.6
20260503171649 58 290 8.0 10.0 0.00 0.00 0.00 44 1013.8
20260503171147 58 271 5.0 7.0 0.00 0.00 0.00 44 1013.9
20260503170643 57 248 6.0 8.0 0.00 0.00 0.00 46 1013.7
20260503170140 57 302 12.0 14.0 0.00 0.00 0.00 43 1013.9
20260503150531 54 277 5.0 6.0 0.00 0.00 0.00 52 1014.9
20260503131419 46 224 3.0 4.0 0.00 0.00 0.00 63 1015.3
20260503130916 46 269 4.0 4.0 0.00 0.00 0.00 64 1015.3
20260503130414 45 254 8.0 9.0 0.00 0.00 0.00 63 1015.3
20260503110817 35 173 0.0 0.0 0.00 0.00 0.00 81 1014.9
20260503110314 34 180 0.0 0.0 0.00 0.00 0.00 82 1014.8
20260503100240 34 173 0.0 0.0 0.00 0.00 0.00 81 1014.4
20260503090159 36 215 0.0 0.0 0.00 0.00 0.00 79 1014.4
20260503081636 36 224 0.0 0.0 0.00 0.00 0.00 78 1014.4
20260503081127 36 230 0.0 0.0 0.00 0.00 0.00 78 1014.6
20260503080623 36 226 0.0 0.0 0.00 0.00 0.00 78 1014.3
20260503080120 36 227 0.0 0.0 0.00 0.00 0.00 78 1014.5
20260503072556 37 227 0.0 0.0 0.00 0.00 0.00 78 1014.4
20260503072054 37 245 0.0 0.0 0.00 0.00 0.00 78 1014.6
20260503071551 37 232 0.0 0.0 0.00 0.00 0.00 78 1014.5
20260503071048 37 227 0.0 0.0 0.00 0.00 0.00 77 1014.5
20260503070543 37 222 0.0 0.0 0.00 0.00 0.00 77 1014.6
20260503054957 39 221 2.0 2.0 0.00 0.00 0.00 76 1014.9
20260503054453 39 230 0.0 0.0 0.00 0.00 0.00 76 1015.1
20260503053951 39 228 0.0 0.0 0.00 0.00 0.00 76 1015.1
20260503053449 39 227 0.0 0.0 0.00 0.00 0.00 76 1014.9
20260503052945 39 224 2.0 2.0 0.00 0.00 0.00 76 1015.0
20260503052443 39 225 2.0 3.0 0.00 0.00 0.00 77 1014.9
20260503051939 39 236 3.0 3.0 0.00 0.00 0.00 77 1014.8
20260503051435 39 234 0.0 0.0 0.00 0.00 0.00 77 1014.8
20260503050932 39 220 0.0 0.0 0.00 0.00 0.00 77 1014.6
20260503050428 39 225 0.0 0.0 0.00 0.00 0.00 77 1014.8
20260503045926 39 225 0.0 0.0 0.00 0.00 0.00 77 1014.8
20260503045423 39 226 0.0 0.0 0.00 0.00 0.00 76 1015.0
20260503044920 39 222 0.0 0.0 0.00 0.00 0.00 76 1014.9
20260503044417 0 0.0 0.0 0.00 0.00 0.00 1014.6
20260503043914 40 221 0.0 0.0 0.00 0.00 0.00 76 1014.8
20260503043411 40 221 0.0 0.0 0.00 0.00 0.00 76 1014.6
20260503042907 40 217 0.0 0.0 0.00 0.00 0.00 75 1014.8
20260503042404 40 228 0.0 0.0 0.00 0.00 0.00 75 1014.9
20260503041900 40 224 0.0 0.0 0.00 0.00 0.00 75 1014.6
20260503041357 40 230 0.0 0.0 0.00 0.00 0.00 75 1014.8
20260503040855 40 217 0.0 0.0 0.00 0.00 0.00 75 1014.6
20260503040352 40 210 0.0 0.0 0.00 0.00 0.00 76 1014.8
20260503035849 40 198 0.0 0.0 0.00 0.00 0.00 75 1015.0
20260503035346 40 222 0.0 0.0 0.00 0.00 0.00 75 1015.1
20260503034843 40 215 0.0 0.0 0.00 0.00 0.00 75 1015.0
20260503034341 40 219 0.0 0.0 0.00 0.00 0.00 75 1015.0
20260503033838 41 213 0.0 0.0 0.00 0.00 0.00 74 1015.0
20260503033335 41 219 0.0 0.0 0.00 0.00 0.00 74 1014.8
20260503032833 41 217 0.0 0.0 0.00 0.00 0.00 73 1015.1
20260503032332 41 208 0.0 0.0 0.00 0.00 0.00 73 1015.1
20260503031829 41 216 0.0 0.0 0.00 0.00 0.00 73 1014.9
20260503031326 41 189 0.0 0.0 0.00 0.00 0.00 73 1015.0
20260503030822 41 178 0.0 0.0 0.00 0.00 0.00 73 1014.9
20260503030319 41 163 0.0 0.0 0.00 0.00 0.00 72 1015.0
20260503025816 41 163 0.0 0.0 0.00 0.00 0.00 72 1014.9
20260503025313 41 163 0.0 0.0 0.00 0.00 0.00 72 1015.1
20260503024810 42 163 0.0 0.0 0.00 0.00 0.00 72 1015.1
20260503024307 42 163 0.0 0.0 0.00 0.00 0.00 72 1015.2
20260503023803 42 163 0.0 0.0 0.00 0.00 0.00 72 1015.3
20260503023300 42 162 0.0 0.0 0.00 0.00 0.00 72 1015.2
20260503022756 42 162 0.0 0.0 0.00 0.00 0.00 71 1015.1
20260503022251 42 162 0.0 0.0 0.00 0.00 0.00 70 1015.1
20260503021748 42 162 0.0 0.0 0.00 0.00 0.00 69 1015.5
20260503021244 42 183 0.0 0.0 0.00 0.00 0.00 69 1015.3
20260503020742 42 303 0.0 0.0 0.00 0.00 0.00 69 1015.2
20260503020240 42 18 0.0 0.0 0.00 0.00 0.00 69 1015.2
20260503015736 43 22 0.0 0.0 0.00 0.00 0.00 67 1015.1
20260503015233 43 23 0.0 0.0 0.00 0.00 0.00 66 1015.0
20260503014728 43 32 0.0 0.0 0.00 0.00 0.00 66 1015.1
20260503014227 43 7 0.0 0.0 0.00 0.00 0.00 65 1015.0
20260503013724 43 17 0.0 0.0 0.00 0.00 0.00 66 1015.1
20260503013222 43 21 0.0 0.0 0.00 0.00 0.00 66 1015.0
20260503012719 44 304 0.0 0.0 0.00 0.00 0.00 64 1015.0
20260503012215 43 297 0.0 0.0 0.00 0.00 0.00 64 1014.9
20260503011712 43 292 0.0 0.0 0.00 0.00 0.00 65 1015.1
20260503011209 43 311 0.0 0.0 0.00 0.00 0.00 66 1015.0